Volver al catálogo

ONEWEB-0474

ActivoComunicacionesPO
NORAD 51654·PAYLOAD·🇬🇧 United Kingdom

Lanzado Feb 10, 2022 desde Guiana Space Centre

Loading…

Próximos Pases (próximas 24 horas)

TLE

ActualizadoSource: CelesTrak SupGP

Época: Sep 14, 2026, 14:16 UTC

1 51654C 22012AJ  26257.59498100 -.00000760  00000+0 -21808-2 0  2578
2 51654  87.8901  18.4650 0001853  99.4604 312.0576 13.10368984    17

Sigue ONEWEB-0474 en tiempo real con AllMySat

Download on the App Store